#timestamp,LO_Frequency,Hit,StdDev 
1619766015.7,286047004.4,N
1619766035.6,286047002.4,N
1619766055.4,286047000.1,N
1619766075.2,286047000.1,N
1619766095.1,286047001.5,N
1619766096.0,286047001.5,N
1619766115.8,286046998.4,N
1619766135.6,286046999.9,N
1619766155.5,286047001.5,N
1619766175.3,286047004.1,N
1619766195.2,286047004.4,N
1619766215.9,286047003.9,N
1619766235.7,286047004.4,N
1619766255.6,286047001.9,N
1619766275.4,286047002.4,N
1619766295.2,286047001.4,N
1619766315.1,286047002.6,N
1619766316.0,286047002.6,N
1619766335.8,286047003.3,N
1619766355.7,286047003.0,N
1619766375.5,286047005.5,Y
1619766395.3,286047004.0,P
1619766415.2,286047001.5,N
1619766465.0,286047004.0,E
1619766475.9,286047002.5,N
1619766495.7,286047000.5,P
1619766515.5,286047001.1,N
1619766535.4,286046998.9,N
1619766555.2,286046997.0,N
1619766575.0,286046997.8,N
1619766575.9,286046997.8,N
1619766595.8,286046996.1,N
1619766615.6,286046992.0,Y
1619766665.5,286046994.2,E
1619766675.4,286046996.8,N
1619766695.2,286047003.8,P
1619766715.1,286047004.2,N
1619766716.0,286047004.2,N
1619766735.8,286047003.2,N
1619766755.7,286047003.7,N
1619766775.7,286047003.3,N
1619766795.6,286047007.5,Y
1619766815.4,286047003.4,P
1619766835.3,286047003.7,P
1619766855.1,286046999.9,N
1619766875.8,286047000.4,N
1619766895.7,286046999.6,N
1619766915.5,286046996.8,N
1619766935.3,286046999.2,N
1619766955.2,286047000.9,N
1619766975.0,286047002.5,N
1619766975.9,286047002.5,N
1619766995.8,286047002.5,N
1619767015.6,286047002.8,N
1619767035.4,286047002.7,N
1619767055.3,286047004.0,N
1619767075.1,286047002.4,N
1619767095.9,286047003.6,N
1619767115.7,286047004.0,N
1619767135.5,286047002.8,N
1619767155.4,286047002.1,N
1619767175.2,286047002.4,N
1619767195.0,286047000.1,N
1619767195.9,286047000.1,N
1619767215.8,286047004.1,N
1619767235.6,286047001.4,N
1619767255.5,286047002.4,N
1619767275.3,286047004.4,N
1619767295.1,286047002.5,N
1619767315.9,286047003.8,N
1619767335.7,286047004.0,N
1619767355.5,286047000.0,N
1619767375.4,286047000.5,N
1619767395.2,286046998.4,N
1619767415.0,286046998.2,N
1619767416.0,286046998.2,N
1619767435.8,286047001.8,N
1619767455.6,286047004.0,N
1619767475.5,286047003.1,N
1619767495.3,286047003.5,N
1619767515.1,286047003.5,N
1619767535.9,286047004.1,N
1619767555.7,286047001.8,N
1619767575.5,286047003.9,N
1619767595.4,286047002.1,N
1619767615.2,286046999.9,N
1619767635.1,286047000.9,N
1619767636.0,286047000.9,N
1619767655.8,286047001.1,N
1619767675.6,286046996.6,N
1619767695.5,286047001.1,N
1619767715.3,286047001.5,N
1619767735.2,286046998.1,N
1619767755.9,286046996.6,N
1619767775.7,286046999.2,N
1619767795.6,286047001.1,N
1619767815.4,286047000.0,N
1619767835.3,286047002.4,N
1619767855.1,286047011.9,Y
1619767856.0,286046999.7,P
1619767875.8,286047000.8,N
1619767895.7,286047001.0,N
1619767915.5,286046997.5,Y
1619767935.3,286046995.6,P
1619767955.2,286046999.6,N
1619767975.0,286046997.7,N
1619767975.9,286046997.7,N
1619767995.8,286046997.6,N
1619768015.6,286046997.3,N
1619768035.5,286046996.5,N
1619768055.3,286046995.2,Y
1619768075.1,286046998.1,P
1619768095.9,286047000.2,N
1619768115.7,286046998.6,N
1619768135.5,286046998.5,N
1619768155.4,286047000.1,N
1619768175.2,286046998.4,N
1619768195.1,286047000.3,N
1619768196.0,286047000.3,N
1619768215.8,286046999.0,N
1619768235.6,286046997.9,N
1619768255.5,286046995.4,Y
1619768275.3,286046999.0,P
1619768295.2,286047000.7,P
1619768315.9,286047001.4,N
1619768335.7,286047003.5,Y
1619768355.6,286047004.3,P
1619768375.4,286047003.7,N
1619768395.2,286047003.4,N
1619768415.1,286047003.4,N
1619768416.0,286047003.4,N
1619768435.8,286047000.5,N
1619768455.7,286047000.2,N
1619768475.5,286047000.3,N
1619768495.4,286046998.4,N
1619768515.2,286047002.7,N
1619768535.0,286047005.5,N
1619768535.9,286047005.5,N
1619768555.8,286047001.4,N
1619768575.6,286047000.3,N
1619768595.5,286046999.3,N
1619768615.3,286046997.8,N
1619768635.1,286046995.7,N
1619768655.9,286046998.0,N
1619768675.7,286046995.4,N
1619768695.5,286046997.6,N
1619768715.4,286046995.4,N
1619768735.2,286046997.9,N
1619768755.1,286046999.3,N
1619768756.0,286046999.3,N
1619768775.8,286046998.9,N
1619768795.6,286046995.1,N
1619768815.5,286046993.7,N
1619768835.3,286046995.7,N
1619768855.2,286046995.4,N
1619768875.9,286046997.4,N
1619768895.7,286046995.0,N
1619768915.6,286046997.1,N
1619768935.4,286046996.8,N
1619768955.2,286046996.6,N
1619768975.1,286046998.9,N
1619768976.0,286046998.9,N
1619768995.8,286047000.4,N
1619769015.7,286046999.9,N
1619769035.5,286047000.9,N
1619769055.3,286046999.8,N
1619769075.2,286047000.4,N
1619769095.0,286046999.9,N
1619769095.9,286046999.9,N
1619769115.8,286047000.7,N
1619769135.6,286046998.1,N
1619769155.4,286047000.4,N
1619769175.3,286047000.6,N
1619769195.1,286046996.6,N
1619769215.8,286046994.9,N
1619769235.7,286046995.9,N
1619769255.5,286046993.8,N
1619769275.4,286046996.1,N
1619769295.2,286046999.4,N
1619769315.1,286046999.0,N
1619769316.0,286046999.0,N
1619769335.8,286047001.1,N
1619769355.6,286047001.0,N
1619769375.5,286046999.5,N
1619769395.3,286046998.4,N
1619769415.1,286046998.9,N
1619769435.9,286046998.9,N
1619769455.7,286046999.6,N
1619769475.6,286046998.0,N
1619769495.4,286046996.2,N
1619769515.2,286046996.9,N
1619769535.1,286046996.7,N
1619769536.0,286046996.7,N
1619769555.8,286046995.4,N
1619769575.6,286046991.8,Y
1619769595.5,286046996.9,P
